#timestamp,LO_Frequency,Hit,StdDev 
1508050815.8,286046998.1,N
1508050835.6,286046998.7,N
1508050855.5,286046996.8,N
1508050875.3,286046997.2,N
1508050895.2,286046998.5,N
1508050915.9,286046999.3,N
1508050935.7,286046998.2,N
1508050955.6,286046999.4,N
1508050975.4,286046998.4,N
1508050995.2,286047001.0,N
1508051015.1,286046998.7,N
1508051016.0,286046998.7,N
1508051035.8,286046999.2,N
1508051055.7,286046996.9,N
1508051075.5,286046998.7,N
1508051095.3,286046998.7,N
1508051115.2,286046999.2,N
1508051135.0,286046999.0,N
1508051135.9,286046999.0,N
1508051155.8,286047000.9,N
1508051175.6,286047000.3,N
1508051195.4,286046999.9,N
1508051215.3,286047000.7,N
1508051235.1,286046998.1,N
1508051255.8,286047001.0,N
1508051275.7,286046998.9,N
1508051295.5,286046998.9,N
1508051315.4,286046999.3,N
1508051335.2,286046998.8,N
1508051355.0,286046998.3,N
1508051355.9,286046998.3,N
1508051375.8,286046998.5,N
1508051395.6,286047000.7,N
1508051415.5,286046998.8,N
1508051435.3,286046998.7,N
1508051455.1,286046998.9,N
1508051475.9,286046998.3,N
1508051495.7,286047000.5,N
1508051515.5,286047000.5,N
1508051535.4,286047001.0,N
1508051555.2,286046998.8,N
1508051575.1,286046998.2,N
1508051576.0,286046998.2,N
1508051595.8,286046998.8,N
1508051615.7,286047000.2,N
1508051635.5,286047002.2,N
1508051655.3,286047002.8,N
1508051675.2,286047000.9,N
1508051695.0,286047000.1,N
1508051695.9,286047000.1,N
1508051715.7,286047002.0,N
1508051735.6,286047002.1,N
1508051755.4,286047000.9,N
1508051775.3,286046999.8,N
1508051795.1,286047002.5,N
1508051796.0,286047002.5,N
1508051815.8,286047001.9,N
1508051835.7,286047001.7,N
1508051855.5,286047003.7,N
1508051875.3,286047002.1,N
1508051895.2,286047002.0,N
1508051915.0,286047002.5,N
1508051915.9,286047002.5,N
1508051935.8,286046999.9,N
1508051955.6,286047001.0,N
1508051975.4,286047000.3,N
1508051995.3,286047000.9,N
1508052015.1,286047000.0,N
1508052035.8,286047000.5,N
1508052055.7,286046998.2,N
1508052075.5,286047000.5,N
1508052095.4,286047000.3,N
1508052115.2,286046998.5,N
1508052135.0,286047000.7,N
1508052135.9,286047000.7,N
1508052155.8,286047000.2,N
1508052175.6,286046999.9,N
1508052195.4,286047002.1,N
1508052215.3,286047002.8,N
1508052235.1,286047000.0,N
1508052255.9,286047000.4,N
1508052275.7,286047002.7,N
1508052295.5,286047000.2,N
1508052315.4,286047002.6,N
1508052335.2,286047000.1,N
1508052355.0,286047002.7,N
1508052356.0,286047002.7,N
1508052375.8,286047002.7,N
1508052395.6,286047001.4,N
1508052415.5,286047001.7,N
1508052435.3,286047002.8,N
1508052455.1,286047000.3,N
1508052475.9,286047000.2,N
1508052495.7,286047011.9,Y
1508052515.6,286047000.7,P
1508052535.4,286046998.1,P
1508052555.2,286046999.3,N
1508052575.1,286046998.3,N
1508052576.0,286046998.3,N
1508052595.8,286046998.1,N
1508052615.6,286047000.7,N
1508052635.5,286047000.5,N
1508052655.3,286047000.7,N
1508052675.2,286047000.7,N
1508052695.9,286047000.7,N
1508052715.7,286047000.7,N
1508052735.6,286046998.8,N
1508052755.4,286047000.5,N
1508052775.3,286046999.8,N
1508052795.1,286047002.1,N
1508052796.0,286047002.1,N
1508052815.8,286047002.2,N
1508052835.7,286047000.4,N
1508052855.5,286047000.2,N
1508052875.3,286047000.1,N
1508052895.2,286047000.3,N
1508052915.0,286047000.8,N
1508052915.9,286047000.8,N
1508052935.8,286046998.1,N
1508052955.6,286046998.1,N
1508052975.4,286046998.6,N
1508052995.3,286046998.7,N
1508053015.1,286047000.7,N
1508053035.8,286047001.2,N
1508053055.7,286046998.1,N
1508053075.5,286047001.0,N
1508053095.4,286046998.1,N
1508053115.2,286047000.6,N
1508053135.0,286047000.7,N
1508053135.9,286047000.7,N
1508053155.8,286046998.8,N
1508053175.6,286047001.2,N
1508053195.5,286047001.2,N
1508053215.3,286046999.2,N
1508053235.1,286046999.5,N
1508053255.9,286046998.5,N
1508053275.7,286047000.8,N
1508053295.5,286046998.6,N
1508053315.4,286047000.8,N
1508053335.2,286046998.2,N
1508053355.1,286047000.4,N
1508053356.0,286047000.4,N
1508053375.8,286047000.6,N
1508053395.6,286047001.2,N
1508053415.5,286046999.6,N
1508053435.3,286046999.1,N
1508053455.1,286046999.1,N
1508053475.9,286046999.5,N
1508053495.7,286046998.9,N
1508053515.6,286046998.9,N
1508053535.4,286046998.5,N
1508053555.2,286046998.9,N
1508053575.1,286047001.1,N
1508053576.0,286047001.1,N
1508053595.8,286047000.0,N
1508053615.7,286046998.5,N
1508053635.5,286046995.3,Y
1508053655.3,286046997.9,P
1508053675.4,286046995.1,P
1508053695.2,286046997.6,N
1508053715.1,286046995.0,Y
1508053716.0,286046995.0,P
1508053735.8,286046999.5,N
1508053755.6,286046999.1,N
1508053775.5,286046997.4,N
1508053795.3,286046997.1,N
1508053815.1,286046996.5,N
1508053835.9,286046998.7,N
1508053855.7,286046998.8,N
1508053875.6,286046996.9,N
1508053895.4,286046996.7,N
1508053915.2,286046997.4,N
1508053935.1,286046996.5,N
1508053936.0,286046996.5,N
1508053955.8,286046997.6,N
1508053975.7,286046997.4,N
1508053995.5,286046996.7,N
1508054015.3,286046999.2,N
1508054035.2,286046999.4,N
1508054055.0,286046999.3,N
1508054055.9,286046999.3,N
1508054075.8,286046996.9,N
1508054095.6,286046997.7,N
1508054115.4,286046997.7,N
1508054135.3,286046997.5,N
1508054155.1,286046997.8,N
1508054175.9,286046993.5,Y
1508054195.7,286046997.2,P
1508054215.5,286046998.8,P
1508054235.4,286046997.4,P
1508054255.2,286047000.6,N
1508054275.0,286047005.5,Y
1508054275.9,286047005.5,P
1508054295.8,286047012.7,P
1508054315.6,286047012.8,N
1508054335.5,286047016.9,N
1508054355.3,286047018.0,N
1508054375.1,286047018.4,N
1508054395.9,286047014.5,N
